Regional Weather Roundup
Issued by NWS

Home | Current Version | Previous Version | Text Only | Print | Product List | Glossary On
Versions: 1 2 3 4 5 6 7 8 9 10 11 12 13 14 15 16 17 18 19 20 21 22 23 24 25 26 27 28 29 30 31 32 33 34 35 36 37 38 39 40 41 42 43 44 45 46 47 48 49 50
000
ASUS43 KTOP 180708
RWRKS

WEATHER ROUNDUP FOR KANSAS
NATIONAL WEATHER SERVICE GOODLAND KS
100 AM CST MON DEC 18 2017

NOTE:  "FAIR" INDICATES FEW OR NO CLOUDS BELOW 12,000 FEET WITH NO
SIGNIFICANT WEATHER AND/OR OBSTRUCTIONS TO VISIBILITY.

KSZ001>006-013>018-027>032-041>047-180800-
NORTHWEST KANSAS

CITY           SKY/WX    TMP DP  RH WIND       PRES   REMARKS
GOODLAND       CLOUDY    24  21  88 W10       29.97F WCI  14
HAYS           CLOUDY    21  19  92 W3        30.02F
HILL CITY      CLOUDY    24  22  91 W7        30.01F
RUSSELL        CLOUDY    22  21  96 SW7       30.01F
$$

KSZ061>065-074>080-084>089-180800-
SOUTHWEST KANSAS

CITY           SKY/WX    TMP DP  RH WIND       PRES   REMARKS
DODGE CITY     CLOUDY    23  19  85 W3        30.04F
ELKHART        CLOUDY    29  27  91 SW10      30.03S WCI  20
GARDEN CITY    CLOUDY    22  19  89 W5        30.03F
GREAT BEND     CLOUDY    24  22  91 SW6       30.04F
LIBERAL        CLOUDY    20  17  88 W5        30.06S
PRATT          CLOUDY    25  21  85 W5        30.06S
$$

KSZ066>073-081>083-090>101-180800-
SOUTHEAST KANSAS

CITY           SKY/WX    TMP DP  RH WIND       PRES   REMARKS
CHANUTE        CLOUDY    45  43  93 SW7       30.07F
COFFEYVILLE    CLOUDY    44  43  96 SW7       30.09S
HUTCHINSON     CLOUDY    28  26  92 NW5       30.04F
MEDICINE LODGE   N/A     29  28  96 N5        30.06S
NEWTON         CLEAR     32  31  96 W6        30.05S
PARSONS        CLOUDY    44  44 100 S5        30.09S
WICHITA INTL   CLEAR     33  32  96 W3        30.05F FOG
WICHITA JABRA  CLEAR     37  36  96 SW7       30.05F
WICHITA MCCONL CLEAR     37  35  92 W5        30.05F
WINFIELD       CLOUDY    43  43 100 SW3       30.08S
$$

KSZ007>012-019>026-033>040-048>060-102>105-180800-
NORTHEAST KANSAS

CITY           SKY/WX    TMP DP  RH WIND       PRES   REMARKS
CONCORDIA      CLEAR     30  27  88 SW7       30.00F
EMPORIA        MOCLDY    43  37  79 SW8       30.03F
LAWRENCE       CLOUDY    45  42  89 SW7       30.02F
MANHATTAN      PTCLDY    38  34  85 NW3       30.03S
MARYSVILLE     FOG       28  28 100 S3        30.00F VSB 1/4
OLATHE IND     CLOUDY    43  43 100 SW7       30.04S
OLATHE EXE     CLOUDY    42  42 100 SW6       30.03S
SALINA         CLEAR     31  27  85 SW5       30.05R
TOPEKA BILLARD CLOUDY    45  41  86 SW5       30.02F
TOPEKA FORBES  CLOUDY    45  41  86 SW7       30.02S
$$




USA.gov is the U.S. government's official web portal to all federal, state and local government web resources and services.